[[{"header":{"parameterUnit":"m.s-1","parameterCategory":1,"la1":30.2991,"la2":30.254,"lo1":-89.0895,"lo2":-89.0444,"dy":0.0017,"dx":0.0017,"nx":28,"ny":28,"refTime":"2023-08-25T09:00:00:Z","depth":0,"parameterNumber":2,"parameterNumberName":"U-component_of_WINDS"},"data":[0,0,0,0,0,0,0,0,0,0,0,0,0,0,0,0,0,0,0,0,0,0,0,0,0,0,0,0,0,0,0,0,0,0,0,0,0,0,0,0,0,0,0,0,0,0,0,0,0,0,0,0,0,0,0,0,0,0,1.6032,1.6034,0,1.6205,1.6206,1.6208,1.628,1.6279,1.6279,1.6278,1.6456,1.6461,1.6466,0,0,0,0,0,0,0,0,0,0,0,0,0,1.5762,1.5766,1.6031,1.6034,1.6036,1.6204,1.6207,1.6209,1.628,1.6279,1.6279,1.6278,1.6454,1.646,1.6466,0,0,0,0,0,0,0,0,0,0,0,0,0,1.5901,1.5768,1.6031,1.6091,1.6099,1.6204,1.6207,1.621,1.628,1.6279,1.6279,1.6278,1.6452,1.6459,1.6467,1.6525,0,0,1.649,1.6493,0,0,0,0,0,0,0,0,1.5893,1.5911,1.608,1.6087,1.6096,1.622,1.6177,1.6315,1.628,1.6211,1.6278,1.6278,1.6378,1.6391,1.6425,1.6533,1.6541,1.6491,1.6495,1.6499,1.6501,0,0,0,0,0,0,0,1.5883,1.5904,1.61,1.6083,1.6092,1.611,1.6129,1.6203,1.6295,1.6217,1.6222,1.6242,1.6382,1.6417,1.643,1.6543,1.649,1.6497,1.6502,1.6505,1.6708,1.6708,0,0,0,0,0,0,1.5864,1.5895,1.6094,1.6105,1.5991,1.6115,1.6136,1.6181,1.6295,1.6312,1.6242,1.6245,1.6405,1.6421,1.6436,1.6511,1.6499,1.6506,1.651,1.6707,1.6708,1.6709,0,0,0,0,0,0,1.5858,1.5881,1.6088,1.6002,1.603,1.612,1.6169,1.6184,1.622,1.6314,1.6331,1.6262,1.6405,1.6425,1.6502,1.6519,1.6509,1.6516,1.6706,1.6707,1.6708,1.6662,0,0,0,0,0,0,1.585,1.5878,1.5902,1.6002,1.6034,1.6151,1.617,1.6188,1.6233,1.6238,1.6337,1.6353,1.6406,1.649,1.651,1.6529,1.6522,1.6705,1.6706,1.6708,1.6663,1.6662,1.6661,0,0,0,0,0,1.584,1.5882,1.5902,1.5926,1.6065,1.6151,1.617,1.623,1.6234,1.6258,1.6318,1.6349,1.6513,1.6498,1.652,1.6542,1.6704,1.6706,1.6708,1.6663,1.6662,1.6661,0,0,0,0,0,0,1.5781,1.5896,1.592,1.5996,1.6063,1.6163,1.6195,1.6227,1.6295,1.6297,1.6369,1.6391,1.6461,1.6509,1.649,1.6604,1.6611,1.6618,1.657,1.6569,1.6568,1.6555,1.6528,0,0,0,0,0,1.5777,1.5838,1.5935,1.5992,1.6025,1.6104,1.6144,1.6185,1.6258,1.6287,1.6353,1.6422,1.6489,1.6532,1.6599,1.667,1.6692,1.6696,1.6695,1.6694,1.6698,1.6739,1.6742,1.6715,1.6715,1.6715,0,0,1.5769,1.5839,1.5873,1.5982,1.604,1.6101,1.6128,1.6192,1.6238,1.6297,1.6373,1.6423,1.6506,1.6579,1.6615,1.6622,1.6711,1.6696,1.6694,1.67,1.6741,1.6744,1.6746,1.6716,1.6716,1.6716,0,0,1.5786,1.5845,1.5899,1.5956,1.6042,1.6094,1.6107,1.6202,1.6238,1.6316,1.6361,1.6417,1.6531,1.6588,1.6631,1.6669,1.67,1.6689,1.6684,1.6723,1.6725,1.6727,1.674,1.6744,1.6693,1.6693,1.6693,0,1.5765,1.5859,1.5923,1.5985,1.6031,1.6087,1.6142,1.6194,1.6297,1.6327,1.6333,1.6477,1.6537,1.6624,1.6633,1.6667,1.6684,1.6678,1.6719,1.6722,1.6725,1.6738,1.6743,1.6691,1.6691,1.6691,1.6691,0,1.5829,1.5894,1.5927,1.6026,1.6076,1.6134,1.6206,1.6249,1.6285,1.6336,1.6414,1.6487,1.657,1.6594,1.663,1.6687,1.6688,1.6705,1.6714,1.6725,1.6738,1.6744,1.6688,1.6689,1.6689,1.669,0,0,1.5814,1.5947,1.5958,1.6003,1.6102,1.6153,1.6213,1.6293,1.6329,1.6398,1.645,1.6545,1.6562,1.6611,1.6654,1.6688,1.6712,1.6702,1.6705,1.6701,1.6779,1.6765,1.677,1.6734,1.6735,1.6736,1.6772,0,1.5844,1.5955,1.6013,1.6099,1.6159,1.6212,1.6265,1.6331,1.638,1.6438,1.6493,1.6559,1.6576,1.6606,1.6642,1.6702,1.6729,1.67,1.6783,1.6785,1.676,1.6777,1.6763,1.6793,1.6778,1.6779,1.6779,0,1.5894,1.5962,1.6053,1.6145,1.6172,1.6218,1.6297,1.6351,1.6427,1.6461,1.6515,1.6558,1.6623,1.6626,1.6717,1.6696,1.6733,1.6767,1.677,1.678,1.6783,1.6787,1.6804,1.6809,1.6788,1.6788,1.6787,0,1.5873,1.5988,1.6058,1.6095,1.6203,1.6234,1.628,1.6355,1.64,1.6468,1.6498,1.6573,1.6614,1.6671,1.6732,1.6729,1.6816,1.6825,1.6846,1.6844,1.6862,1.686,1.6885,1.6886,1.6886,1.6886,1.6885,0,1.5901,1.5954,1.605,1.6092,1.6154,1.6221,1.6279,1.633,1.6396,1.6449,1.65,1.6549,1.6627,1.6685,1.6734,1.6801,1.6819,1.6848,1.686,1.6844,1.684,1.6869,1.6869,1.6887,1.6887,1.6886,1.6886,0,1.5888,1.5954,1.6033,1.6129,1.6155,1.6196,1.6278,1.6321,1.6372,1.6439,1.6458,1.654,1.6611,1.6678,1.6773,1.6805,1.6873,1.6889,1.6847,1.6854,1.6871,1.6868,1.6916,1.6925,1.6919,1.6919,1.6919,0,1.5901,1.5944,1.6044,1.6083,1.6129,1.6191,1.6237,1.6304,1.6349,1.6438,1.6471,1.6546,1.6609,1.672,1.6788,1.6861,1.6879,1.689,1.689,1.6872,1.6879,1.6876,1.688,1.6889,1.6889,1.6889,1.6888,0,1.5917,1.5948,1.6012,1.6087,1.614,1.6202,1.6266,1.6295,1.6375,1.6423,1.6496,1.6545,1.6642,1.6716,1.6796,1.6844,1.688,1.6888,1.6897,1.688,1.6854,1.6868,1.6844,1.6887,1.6887,1.6887,1.6887,1.6887,1.5918,1.5958,1.6035,1.6104,1.6159,1.6218,1.6263,1.632,1.6383,1.6467,1.6502,1.6576,1.6651,1.6762,1.681,1.6869,1.6877,1.6889,1.6892,1.6894,1.6891,1.6844,1.6884,1.6884,1.6884,1.6884,1.6884,0,1.5936,1.5988,1.6051,1.6139,1.6194,1.6222,1.6294,1.6337,1.6402,1.6468,1.653,1.6614,1.6685,1.6758,1.6834,1.6867,1.6885,1.6884,1.6883,1.6893,1.688,1.6865,1.6868,1.6868,1.6868,1.6868,1.6868,1.6868,1.5952,1.6021,1.6061,1.6158,1.6209,1.6282,1.6321,1.6375,1.6428,1.652,1.658,1.6626,1.6695,1.6776,1.6843,1.6863,1.6888,1.6883,1.6907,1.6893,1.6894,1.6895,1.6881,1.6888,1.6888,1.6916,1.6916,1.6916]},{"header":{"parameterUnit":"m.s-1","parameterCategory":1,"la1":30.2991,"la2":30.254,"lo1":-89.0895,"lo2":-89.0444,"dy":0.0017,"dx":0.0017,"nx":28,"ny":28,"refTime":"2023-08-25T09:00:00:Z","depth":0,"parameterNumber":3,"parameterNumberName":"V-component_of_WINDS"},"data":[0,0,0,0,0,0,0,0,0,0,0,0,0,0,0,0,0,0,0,0,0,0,0,0,0,0,0,0,0,0,0,0,0,0,0,0,0,0,0,0,0,0,0,0,0,0,0,0,0,0,0,0,0,0,0,0,0,0,3.5512,3.5511,0,3.5478,3.5478,3.5478,3.5448,3.5448,3.5447,3.5447,3.5409,3.5408,3.5408,0,0,0,0,0,0,0,0,0,0,0,0,0,3.5548,3.5547,3.5512,3.5511,3.5511,3.5478,3.5478,3.5477,3.5448,3.5448,3.5447,3.5447,3.5409,3.5408,3.5407,0,0,0,0,0,0,0,0,0,0,0,0,0,3.5525,3.5547,3.5512,3.5492,3.549,3.5479,3.5478,3.5477,3.5448,3.5448,3.5447,3.5447,3.5409,3.5408,3.5407,3.5411,0,0,3.5404,3.5404,0,0,0,0,0,0,0,0,3.5526,3.5523,3.5496,3.5494,3.5491,3.5467,3.5477,3.5455,3.5448,3.5464,3.5447,3.5446,3.5428,3.5426,3.542,3.5409,3.5407,3.5404,3.5403,3.5403,3.5403,0,0,0,0,0,0,0,3.5528,3.5525,3.5498,3.5495,3.5493,3.5484,3.5481,3.5472,3.5449,3.5463,3.546,3.5457,3.5427,3.5421,3.5419,3.5407,3.5404,3.5403,3.5402,3.5402,3.5397,3.5397,0,0,0,0,0,0,3.5533,3.5526,3.55,3.5497,3.5508,3.5484,3.548,3.5475,3.5449,3.5445,3.5457,3.5456,3.5424,3.5421,3.5418,3.542,3.5403,3.5402,3.5401,3.5396,3.5397,3.5397,0,0,0,0,0,0,3.5534,3.5531,3.5501,3.5511,3.5507,3.5484,3.5479,3.5475,3.5469,3.5446,3.5441,3.5456,3.5423,3.5419,3.5413,3.5418,3.5401,3.5401,3.5396,3.5397,3.5397,3.5425,0,0,0,0,0,0,3.5535,3.5531,3.5533,3.5512,3.5507,3.5498,3.5479,3.5475,3.5468,3.5465,3.5443,3.5439,3.5422,3.5415,3.5412,3.5417,3.54,3.5395,3.5396,3.5397,3.5423,3.5427,3.5429,0,0,0,0,0,3.5536,3.5541,3.5533,3.553,3.5508,3.5498,3.5495,3.5477,3.5469,3.547,3.5454,3.544,3.5419,3.5414,3.5411,3.5415,3.5395,3.5396,3.5397,3.5422,3.5426,3.5429,0,0,0,0,0,0,3.5562,3.5538,3.5529,3.5527,3.5515,3.5493,3.5494,3.5482,3.5471,3.5468,3.5445,3.5441,3.5437,3.5426,3.5421,3.5418,3.5405,3.5405,3.5425,3.5428,3.5431,3.5434,3.5399,0,0,0,0,0,3.5568,3.5563,3.5541,3.5542,3.5537,3.5517,3.5511,3.5499,3.5485,3.5479,3.5463,3.5449,3.544,3.5433,3.5423,3.5422,3.5416,3.5423,3.5426,3.5429,3.5429,3.5427,3.543,3.5401,3.5401,3.5401,0,0,3.5579,3.5566,3.5563,3.5547,3.5536,3.553,3.5512,3.5507,3.5502,3.5478,3.5471,3.5459,3.5442,3.5439,3.5436,3.5429,3.5436,3.543,3.5432,3.5431,3.5429,3.5432,3.5434,3.5402,3.5402,3.5402,0,0,3.5597,3.5587,3.5586,3.5576,3.556,3.5547,3.5547,3.5527,3.5519,3.5512,3.5494,3.5487,3.5471,3.546,3.5452,3.5467,3.5452,3.5464,3.5478,3.5477,3.5479,3.5481,3.5486,3.5488,3.5464,3.5465,3.5465,0,3.5613,3.5604,3.5587,3.5583,3.5576,3.5556,3.5554,3.5545,3.5526,3.5522,3.5514,3.5494,3.5481,3.5474,3.5478,3.5473,3.5471,3.5466,3.5481,3.5483,3.5484,3.5488,3.549,3.5466,3.5466,3.5466,3.5466,0,3.5624,3.5619,3.562,3.5604,3.5597,3.5595,3.5576,3.5571,3.556,3.5547,3.5541,3.5525,3.5511,3.5508,3.5496,3.55,3.5496,3.5485,3.5472,3.5489,3.5492,3.5494,3.5468,3.5468,3.5467,3.5467,0,0,3.5656,3.5632,3.5632,3.5625,3.5607,3.5601,3.5598,3.5586,3.5582,3.557,3.5566,3.5553,3.5543,3.5534,3.5521,3.552,3.5532,3.5509,3.5508,3.5513,3.5535,3.5543,3.5545,3.5523,3.5523,3.5524,3.5536,0,3.567,3.5663,3.5648,3.5646,3.564,3.5621,3.5618,3.5606,3.5595,3.5587,3.5574,3.5565,3.5553,3.5548,3.5546,3.5531,3.5536,3.553,3.5518,3.5518,3.5522,3.5547,3.5555,3.5567,3.5537,3.5538,3.5538,0,3.5685,3.5676,3.5674,3.5656,3.5653,3.5651,3.5639,3.5632,3.5618,3.561,3.5601,3.5586,3.5581,3.5569,3.5561,3.5557,3.5551,3.5543,3.5543,3.5541,3.5528,3.5544,3.5571,3.5573,3.554,3.554,3.554,0,3.5708,3.5695,3.5692,3.5686,3.5666,3.5664,3.5656,3.5641,3.5635,3.5624,3.562,3.5609,3.5602,3.5593,3.5575,3.5569,3.5569,3.5556,3.556,3.5561,3.556,3.556,3.5586,3.5558,3.5558,3.5558,3.5558,0,3.5725,3.5724,3.5702,3.57,3.5698,3.568,3.5679,3.5668,3.5656,3.5651,3.5634,3.5629,3.5607,3.56,3.5586,3.5581,3.5578,3.557,3.5566,3.5571,3.5572,3.5566,3.5565,3.5559,3.5558,3.5558,3.5558,0,3.5749,3.5734,3.573,3.5712,3.5707,3.5707,3.5691,3.5687,3.5676,3.5669,3.5667,3.5648,3.5638,3.5621,3.5606,3.5596,3.5594,3.5588,3.5599,3.5596,3.5602,3.5601,3.5624,3.5626,3.5598,3.5598,3.5598,0,3.576,3.5759,3.5742,3.5738,3.573,3.5724,3.5718,3.5701,3.5695,3.568,3.5678,3.5668,3.5659,3.5644,3.5628,3.5617,3.561,3.5619,3.5608,3.5613,3.5609,3.5609,3.5608,3.562,3.5621,3.5621,3.5621,0,3.5781,3.5774,3.5767,3.5758,3.5752,3.5743,3.5733,3.5731,3.5711,3.5705,3.5697,3.5689,3.5675,3.5665,3.5651,3.5641,3.5628,3.5625,3.5626,3.563,3.5636,3.5632,3.5605,3.5624,3.5624,3.5624,3.5624,3.5624,3.5799,3.5797,3.5785,3.5777,3.5769,3.576,3.5757,3.5745,3.5738,3.5725,3.5716,3.5707,3.5693,3.5674,3.5665,3.5658,3.5651,3.5652,3.5652,3.5652,3.5654,3.5639,3.5655,3.5655,3.5655,3.5655,3.5655,0,3.5818,3.581,3.5803,3.5791,3.5785,3.5775,3.5764,3.576,3.5753,3.5742,3.5734,3.5723,3.5713,3.5697,3.5686,3.5683,3.5677,3.568,3.568,3.5678,3.5661,3.5661,3.5686,3.5686,3.5686,3.5686,3.5686,3.5686,3.5828,3.5824,3.5816,3.5809,3.58,3.5792,3.5787,3.5779,3.577,3.576,3.5752,3.5742,3.5729,3.5717,3.5707,3.5702,3.5699,3.5704,3.5698,3.5682,3.5679,3.5676,3.5676,3.5704,3.5704,3.5715,3.5715,3.5715]}]]